Tracking 28790 objects as of 19-Apr-2024
HD Live streaming from Space Station
objects crossing your sky now

STARLINK-1338

Track STARLINK-1338 now!
10-day predictions


NORAD ID: 45532
Int'l Code: 2020-025B
Perigee: 553.4 km
Apogee: 555.3 km
Inclination: 53.1 °
Period: 95.6 minutes
Semi major axis: 6925 km
RCS: Unknown
Launch date: April 22, 2020
Source: United States (US)
Launch site: AIR FORCE EASTERN TEST RANGE (AFETR)
Your satellite tracking list
Your tracking list is empty




NASA's NSSDC Master Catalog

Two Line Element Set (TLE):
1 45532U 20025B   24109.89246439  .00003645  00000-0  26349-3 0  9994
2 45532  53.0551 323.2378 0001392  83.6493 276.4655 15.06391998221120
Source of the keplerian elements: AFSPC